Powrót do katalogu

STARLINK-5712

AktywnyŁącznośćVLEO
NORAD 55615·PAYLOAD·🇺🇸 United States

Wystrzelony Feb 12, 2023 z Cape Canaveral Space Force Station

Loading…

Następne Przeloty (najbliższe 24 godziny)

TLE

ŚwieżeSource: CelesTrak SupGP

Epoka: Sep 15, 2026, 02:58 UTC

1 55615C 23020AY  26258.12409722  .00011905  00000+0  43133-3 0  2589
2 55615  43.0019   4.0888 0001518 258.1161 135.0696 15.27563461    19

Śledź STARLINK-5712 w czasie rzeczywistym z AllMySat

Download on the App Store